Temp
0 0 1 1 1 1 1 1 1 1 1 1 1 1 1 0 0 0 1 1 1 1 1 1 0 0 0 1 1 1 1 0 0 0 0 0 0 1 1 1 1 1 1 2 3 3 3 3 3 3 3 3 3 3 3 3 3 3 4 4 3 3 3 4 4 3 3 3 3
-0 0 1 1 1 1 1 1 0 0 0 0 0 0 0 0 0 0 0 0 0 0 0 0 0 0 0 1 1 1 0 -0 -0 -0 -0 -0 0 0 0 0 1 1 1 1 2 3 3 3 3 3 2 2 3 3 2 2 3 3 3 3 3 3 3 3 3 3 3 2 2
-0 0 0 0 0 -0 -0 -0 -0 -0 0 0 0 0 0 0 0 -0 -0 -0 -0 0 0 -0 -0 -0 0 1 1 1 -0 -1 -1 -1 -0 -0 -0 -0 -0 0 0 0 1 1 1 2 2 3 2 2 2 2 2 2 2 2 2 3 3 3 2 2 2 2 2 2 2 2 2
0 0 0 -0 -0 -1 -1 -1 -0 -0 -0 -0 -1 -1 -1 -0 -0 -0 -0 -0 -0 -0 -0 -1 -1 -0 0 1 1 -0 -1 -1 -1 -1 -1 -1 -1 -0 -0 -0 -0 0 0 1 1 1 2 2 2 1 1 1 1 1 1 1 2 2 2 2 2 2 2 2 2 2 2 1 1
-1 -0 -0 -0 -0 -1 -1 -1 -0 -0 -1 -1 -1 -1 -1 -1 -1 -1 -0 -0 -0 -1 -1 -1 -1 -1 -0 0 -1 -1 -1 -1 -1 -1 -1 -1 -1 -1 -1 -1 -1 -0 0 0 0 0 1 1 1 1 0 1 1 1 1 1 1 2 2 2 1 1 1 1 1 1 1 1 0
-1 -1 -1 -0 -0 -0 -1 -1 -0 -0 -0 -0 -0 -0 -0 -1 -1 -1 -0 -0 -1 -1 -2 -1 -1 -1 -1 -1 -2 -2 -1 -0 -0 -0 -0 -1 -1 -1 -1 -1 -1 -1 -0 -0 -0 -0 -0 0 0 0 0 0 0 0 0 0 1 1 1 1 1 1 1 1 0 0 0 0 -0
-1 -1 -1 -1 -1 -1 -1 -1 -1 -0 -0 -0 -0 -0 -0 -0 -1 -1 -1 -1 -1 -2 -2 -2 -2 -2 -1 -1 -1 -1 -0 0 0 0 -0 -1 -2 -2 -2 -2 -1 -1 -0 -0 -1 -1 -1 -1 -1 -1 -1 -0 -0 -0 -0 0 0 0 1 1 0 -0 0 0 -0 -0 -0 -0 -0
-0 -1 -1 -1 -1 -1 -1 -1 -0 -0 -0 -0 -0 -1 -1 -1 -1 -0 -1 -1 -1 -1 -2 -2 -1 -1 -0 -0 -0 -0 0 0 1 0 -0 -1 -1 -2 -3 -2 -2 -1 -1 -1 -1 -1 -1 -2 -2 -2 -1 -1 -1 -1 -1 -1 -1 -1 -1 -1 -1 -1 -1 -1 -1 -1 -0 -0 -0
-0 -1 -0 -1 -1 -1 -1 -1 -1 -0 -0 -1 -1 -1 -1 -1 -1 -0 -0 -0 -0 -1 -1 -1 -0 0 0 0 0 0 0 0 -0 -0 -0 -1 -1 -2 -2 -2 -2 -2 -2 -1 -1 -1 -2 -2 -2 -2 -2 -2 -2 -2 -1 -1 -2 -2 -2 -2 -1 -1 -1 -1 -1 -0 -0 -0 -0
-2 -1 -1 -1 -1 -1 -1 -1 -1 -0 -0 -1 -1 -1 -2 -1 -1 -1 -0 -0 -0 -0 -0 0 0 0 0 0 0 0 0 -0 -0 -1 -1 -1 -2 -3 -3 -3 -2 -2 -2 -2 -2 -2 -2 -2 -2 -2 -2 -2 -2 -2 -2 -2 -2 -2 -2 -2 -1 -1 -1 -1 -1 -1 -0 -0 -0
-2 -2 -1 -1 -1 -1 -1 -1 -1 -0 -0 -1 -1 -1 -1 -1 -1 -0 -0 -1 -0 -0 0 0 -0 -0 -0 -0 0 0 0 -0 -1 -1 -1 -2 -2 -3 -3 -3 -3 -3 -3 -2 -2 -2 -2 -2 -2 -3 -3 -3 -3 -3 -3 -3 -2 -2 -2 -2 -2 -1 -1 -1 -1 -1 -0 -0 -0
-1 -2 -1 -1 -1 -1 -1 -1 -1 -1 -1 -1 -1 -1 -1 -0 -0 -0 -1 -1 -0 -0 -0 -0 -0 -0 -0 -0 0 0 -0 -0 -1 -1 -2 -2 -2 -3 -3 -3 -3 -3 -3 -3 -3 -3 -3 -3 -3 -3 -3 -3 -3 -3 -3 -3 -2 -2 -2 -2 -1 -1 -1 -1 -1 -1 -0 -0 -1
-1 -1 -1 -1 -1 -1 -1 -1 -1 -2 -2 -1 -1 -1 -0 -0 -0 -0 -1 -1 -0 -0 -0 -0 -0 -0 -0 0 -0 -0 -0 -1 -1 -1 -2 -2 -2 -3 -3 -3 -3 -3 -3 -3 -3 -3 -3 -3 -3 -3 -3 -3 -3 -3 -3 -3 -2 -2 -2 -2 -1 -1 -1 -1 -1 -1 -1 -1 -1
-0 -1 -1 -2 -2 -2 -2 -2 -2 -2 -2 -2 -1 -1 -1 -1 -1 -1 -1 -1 -1 -1 -1 -1 -0 -0 -0 -0 -0 -1 -1 -1 -1 -1 -2 -2 -2 -3 -3 -3 -3 -3 -3 -3 -3 -3 -3 -3 -3 -3 -3 -3 -3 -3 -3 -3 -3 -2 -2 -2 -1 -1 -1 -1 -1 -1 -1 -1 -1
-1 -1 -1 -2 -2 -2 -2 -2 -2 -2 -2 -2 -1 -1 -1 -1 -1 -1 -1 -1 -1 -1 -1 -1 -1 -0 -1 -1 -1 -1 -1 -1 -1 -2 -2 -2 -2 -2 -2 -3 -3 -3 -3 -3 -3 -3 -3 -3 -4 -3 -3 -3 -3 -3 -3 -3 -3 -2 -2 -2 -1 -1 -1 -1 -1 -1 -1 -1 -2
-1 -1 -1 -1 -1 -2 -2 -2 -1 -1 -2 -2 -1 -2 -2 -2 -2 -1 -1 -1 -1 -1 -1 -1 -1 -1 -1 -1 -1 -1 -2 -2 -2 -2 -2 -2 -2 -2 -2 -2 -2 -3 -3 -3 -3 -3 -4 -4 -4 -4 -4 -4 -3 -3 -3 -3 -3 -2 -2 -2 -1 -1 -1 -1 -1 -1 -1 -2 -2
-1 -1 -1 -1 -1 -1 -1 -1 -1 -2 -2 -2 -2 -2 -2 -2 -2 -2 -2 -1 -1 -1 -1 -1 -1 -1 -1 -1 -1 -2 -2 -2 -2 -2 -2 -2 -2 -2 -2 -2 -2 -3 -3 -3 -3 -3 -4 -4 -4 -4 -4 -4 -4 -3 -3 -3 -2 -2 -2 -1 -1 -1 -1 -1 -1 -1 -1 -2 -1
-1 -1 -1 -1 -1 -1 -1 -1 -1 -2 -2 -2 -2 -2 -2 -2 -2 -2 -2 -2 -2 -2 -2 -2 -2 -2 -2 -2 -2 -2 -2 -2 -2 -2 -2 -2 -2 -2 -2 -2 -2 -3 -3 -3 -3 -3 -4 -4 -4 -4 -4 -4 -4 -3 -3 -2 -2 -2 -2 -1 -1 -1 -1 -1 -1 -2 -2 -2 -1
-1 -1 -1 -1 -1 -1 -1 -1 -1 -1 -1 -1 -1 -1 -1 -1 -1 -1 -1 -1 -2 -2 -2 -2 -2 -2 -2 -2 -2 -2 -2 -2 -2 -1 -1 -1 -1 -1 -2 -2 -3 -3 -3 -3 -3 -4 -4 -4 -4 -4 -4 -4 -4 -3 -3 -2 -2 -2 -1 -1 -1 -1 -1 -1 -1 -1 -1 -1 -2
-1 -1 -1 -1 -1 -1 -1 -1 -1 -1 -1 -1 -1 -1 -1 -1 -1 -1 -1 -1 -1 -1 -2 -2 -2 -2 -2 -2 -2 -2 -2 -2 -2 -1 -1 -1 -1 -2 -2 -2 -2 -3 -4 -4 -4 -4 -4 -4 -4 -4 -4 -4 -3 -3 -2 -2 -2 -1 -1 -1 -1 -1 -1 -1 -1 -1 -1 -2 -2
-0 -1 -1 -1 -1 -1 -1 -1 -1 -1 -1 -1 -1 -1 -1 -1 -1 -1 -1 -1 -1 -1 -2 -2 -2 -2 -2 -2 -2 -2 -2 -2 -2 -2 -2 -2 -2 -2 -2 -2 -3 -3 -4 -4 -4 -4 -4 -4 -4 -4 -4 -4 -3 -3 -2 -2 -2 -1 -1 -1 -1 -1 -1 -1 -1 -1 -2 -2 -2
-0 -0 -1 -1 -1 -1 -1 -1 -1 -1 -1 -1 -1 -1 -1 -1 -1 -1 -1 -1 -1 -2 -2 -2 -2 -2 -2 -2 -3 -3 -3 -3 -2 -2 -2 -2 -2 -2 -2 -3 -3 -3 -3 -4 -4 -4 -4 -4 -4 -4 -4 -3 -3 -2 -2 -2 -2 -1 -1 -1 -1 -1 -1 -1 -1 -2 -2 -2 -3
0 -0 -0 -1 -1 -1 -1 -1 -1 -1 -1 -1 -1 -1 -1 -1 -1 -1 -1 -1 -1 -2 -2 -2 -2 -2 -2 -2 -3 -3 -3 -2 -2 -2 -2 -2 -2 -2 -3 -3 -3 -3 -3 -4 -4 -4 -4 -4 -4 -4 -3 -3 -3 -2 -2 -2 -2 -1 -1 -2 -1 -1 -1 -1 -2 -2 -2 -3 -3
0 0 -0 -0 -1 -1 -1 -1 -1 -1 -2 -2 -1 -1 -1 -1 -1 -2 -2 -2 -2 -2 -2 -2 -1 -1 -1 -2 -2 -2 -2 -2 -2 -2 -2 -2 -2 -2 -3 -3 -3 -3 -4 -4 -4 -4 -3 -3 -4 -4 -3 -3 -2 -2 -2 -2 -2 -2 -2 -2 -1 -1 -1 -2 -2 -2 -3 -3 -3
0 0 -0 -0 -1 -1 -1 -1 -1 -2 -2 -2 -2 -2 -2 -2 -2 -2 -2 -2 -2 -1 -1 -1 -1 -1 -1 -1 -1 -1 -2 -2 -2 -2 -3 -3 -2 -2 -3 -3 -3 -4 -4 -4 -3 -3 -3 -3 -3 -3 -3 -3 -2 -2 -2 -2 -2 -2 -2 -2 -1 -1 -2 -2 -2 -3 -3 -3 -3
0 -0 -0 -1 -1 -1 -1 -1 -1 -1 -2 -2 -2 -2 -2 -2 -2 -2 -2 -2 -2 -1 -1 -1 -1 -1 -1 -1 -1 -1 -1 -1 -2 -2 -3 -3 -3 -3 -3 -3 -3 -4 -4 -4 -3 -3 -3 -3 -3 -3 -3 -2 -2 -2 -2 -2 -2 -2 -2 -2 -2 -2 -2 -2 -2 -3 -2 -2 -3
-0 -0 -1 -1 -1 -1 -1 -1 -1 -1 -2 -2 -2 -2 -2 -2 -2 -2 -2 -2 -1 -1 -1 -1 -1 -1 -1 -1 -1 -1 -1 -1 -2 -2 -3 -3 -4 -4 -3 -3 -3 -4 -4 -3 -3 -3 -3 -3 -2 -2 -2 -2 -2 -2 -2 -2 -2 -2 -2 -2 -2 -2 -2 -2 -2 -2 -2 -2 -3
-0 -1 -1 -1 -1 -1 -1 -1 -1 -1 -1 -2 -2 -2 -2 -2 -2 -2 -2 -2 -2 -1 -1 -1 -1 -1 -1 -1 -1 -1 -1 -1 -1 -2 -3 -3 -3 -4 -4 -3 -3 -3 -3 -3 -3 -3 -3 -2 -2 -2 -2 -2 -2 -2 -2 -2 -2 -2 -2 -2 -2 -2 -2 -2 -2 -2 -2 -2 -3
-0 -0 -1 -1 -1 -1 -1 -1 -1 -1 -1 -1 -2 -2 -2 -3 -3 -2 -2 -2 -2 -2 -1 -1 -1 -1 -1 -1 -1 -1 -1 -1 -1 -2 -3 -3 -3 -3 -3 -3 -3 -3 -3 -3 -2 -2 -2 -2 -2 -2 -2 -2 -2 -2 -2 -2 -2 -2 -2 -2 -2 -2 -2 -2 -2 -2 -2 -3 -3
0 -0 -1 -1 -1 -1 -1 -1 -1 -1 -1 -2 -2 -2 -3 -3 -3 -2 -2 -2 -2 -1 -1 -1 -1 -2 -2 -1 -1 -2 -2 -2 -2 -2 -2 -2 -3 -3 -3 -3 -3 -3 -3 -2 -2 -2 -2 -2 -2 -2 -2 -2 -2 -2 -2 -2 -2 -2 -2 -2 -2 -2 -2 -2 -2 -2 -3 -3 -3
0 -0 -0 -1 -1 -1 -1 -1 -1 -1 -1 -2 -2 -3 -3 -3 -3 -2 -2 -2 -1 -1 -1 -2 -2 -2 -2 -2 -2 -2 -2 -2 -2 -2 -2 -2 -2 -3 -3 -3 -3 -3 -3 -2 -2 -2 -2 -2 -2 -2 -2 -2 -2 -2 -2 -3 -2 -2 -2 -2 -2 -2 -2 -2 -2 -2 -2 -2 -2
0 -0 -0 -1 -1 -1 -1 -1 -1 -1 -2 -2 -2 -3 -3 -3 -2 -2 -2 -2 -2 -2 -2 -2 -2 -2 -2 -2 -2 -2 -2 -2 -2 -2 -2 -2 -2 -3 -3 -3 -3 -3 -3 -2 -2 -2 -2 -2 -2 -2 -2 -2 -2 -2 -2 -3 -3 -3 -2 -2 -2 -2 -2 -2 -2 -2 -2 -2 -2
0 -0 -0 -1 -1 -1 -1 -1 -1 -2 -2 -2 -3 -3 -3 -3 -2 -2 -2 -2 -2 -2 -2 -2 -2 -2 -2 -2 -2 -2 -2 -2 -2 -2 -2 -2 -2 -3 -3 -3 -3 -3 -3 -2 -2 -2 -2 -2 -2 -2 -2 -2 -2 -2 -3 -3 -3 -3 -3 -2 -2 -2 -2 -2 -2 -2 -2 -2 -2
-0 -0 -1 -1 -1 -1 -1 -1 -1 -2 -2 -3 -3 -3 -3 -3 -2 -2 -2 -2 -2 -2 -2 -2 -2 -2 -2 -2 -2 -2 -2 -2 -2 -2 -2 -2 -2 -3 -3 -3 -3 -3 -3 -2 -2 -2 -2 -2 -2 -2 -2 -2 -2 -2 -3 -3 -3 -3 -2 -2 -2 -2 -2 -2 -2 -2 -2 -2 -2
-0 -1 -1 -1 -1 -1 -1 -1 -2 -2 -2 -3 -3 -3 -3 -2 -2 -2 -1 -1 -2 -2 -2 -2 -2 -2 -2 -2 -2 -2 -2 -2 -2 -2 -2 -2 -2 -3 -3 -3 -3 -3 -2 -2 -2 -2 -2 -2 -2 -2 -2 -2 -2 -3 -3 -3 -3 -3 -2 -2 -2 -2 -2 -2 -2 -2 -2 -2 -2
-0 -1 -1 -1 -1 -1 -1 -2 -2 -2 -3 -3 -3 -3 -2 -2 -2 -1 -1 -1 -2 -2 -2 -2 -2 -2 -2 -2 -2 -2 -2 -2 -2 -2 -2 -2 -2 -2 -2 -2 -2 -2 -2 -2 -2 -2 -2 -2 -3 -3 -2 -3 -3 -3 -3 -3 -3 -3 -2 -2 -2 -2 -2 -2 -2 -2 -2 -2 -2
-0 -0 -1 -1 -1 -1 -1 -2 -2 -2 -3 -3 -3 -2 -2 -2 -1 -1 -1 -2 -2 -2 -2 -2 -2 -2 -2 -2 -2 -2 -2 -2 -2 -2 -2 -2 -2 -2 -2 -2 -2 -2 -2 -2 -2 -2 -2 -2 -3 -3 -3 -3 -3 -3 -3 -3 -3 -3 -2 -2 -2 -2 -2 -2 -2 -2 -2 -2 -2
-0 -0 -0 -1 -1 -1 -1 -2 -2 -2 -2 -2 -2 -2 -2 -1 -1 -1 -2 -2 -2 -3 -3 -3 -2 -2 -2 -2 -2 -2 -2 -2 -2 -2 -2 -3 -3 -3 -2 -2 -2 -2 -2 -2 -2 -2 -2 -2 -3 -3 -3 -3 -3 -3 -3 -3 -3 -3 -3 -2 -2 -2 -2 -2 -2 -2 -2 -2 -2
0 -0 -0 -1 -1 -1 -1 -2 -2 -2 -2 -2 -2 -2 -2 -2 -1 -1 -2 -2 -2 -3 -3 -3 -2 -2 -2 -2 -2 -2 -2 -2 -2 -2 -3 -3 -3 -3 -3 -2 -2 -2 -2 -2 -2 -2 -2 -2 -3 -3 -3 -3 -3 -3 -3 -3 -3 -3 -3 -2 -2 -2 -2 -2 -2 -2 -2 -2 -2
0 0 -0 -0 -1 -1 -1 -1 -2 -2 -2 -2 -2 -2 -2 -1 -1 -1 -2 -2 -2 -3 -2 -2 -2 -2 -2 -2 -2 -2 -2 -2 -2 -2 -2 -2 -2 -2 -3 -2 -2 -2 -2 -2 -2 -2 -2 -2 -3 -3 -3 -3 -3 -3 -3 -3 -3 -3 -3 -2 -2 -2 -2 -2 -2 -2 -2 -2 -2
0 0 0 -0 -0 -1 -1 -1 -1 -1 -1 -1 -2 -1 -1 -1 -1 -2 -2 -2 -3 -3 -3 -2 -2 -2 -2 -2 -2 -2 -2 -2 -2 -2 -2 -2 -2 -2 -3 -3 -2 -2 -2 -2 -2 -2 -3 -3 -3 -3 -3 -3 -3 -3 -3 -3 -3 -3 -3 -3 -2 -2 -2 -2 -2 -2 -2 -2 -3
Height
822 822 822 822 823 823 823 823 823 823 823 823 823 823 823 823 823 823 824 824 824 823 823 823 822 822 821 821 820 820 820 819 819 819 818 818 818 817 817 816 816 815 815 814 814 814 814 814 813 813 814 815 815 815 814 813 813 813 813 813 813 813 814 814 814 813 813 813 813
821 821 821 822 822 822 822 823 823 823 823 823 823 823 823 823 823 823 823 823 823 823 822 822 822 821 820 820 820 820 819 819 819 818 818 818 818 817 817 816 816 815 815 814 814 813 813 813 813 813 813 814 814 814 813 813 813 813 813 813 813 813 813 813 813 813 813 813 812
821 821 821 821 821 822 822 822 822 822 822 822 822 822 822 822 822 822 822 822 822 822 821 821 821 820 820 820 820 819 819 819 818 818 818 818 818 817 817 816 816 815 814 814 813 813 813 813 813 813 813 813 813 813 812 812 812 812 812 812 812 813 813 813 813 812 812 812 812
820 820 820 821 821 821 821 821 821 821 821 821 821 821 821 821 821 821 821 821 821 821 821 821 820 820 820 819 819 819 818 818 818 818 817 817 817 817 817 816 815 815 814 814 813 813 813 813 813 813 813 813 813 812 812 811 811 812 812 812 812 812 812 812 812 812 812 812 812
819 819 819 820 820 820 820 820 820 820 820 820 820 820 820 820 820 820 820 820 820 820 820 820 820 819 819 819 818 818 818 818 817 817 817 817 817 817 816 816 815 814 814 813 813 813 813 813 812 812 812 812 812 812 811 811 811 811 811 811 811 811 812 811 811 811 811 811 811
819 819 819 819 819 819 819 819 819 819 819 819 819 819 819 819 819 819 820 820 820 820 820 820 819 819 818 818 818 818 817 817 817 817 816 816 816 816 816 815 814 814 813 813 813 812 812 812 812 812 812 812 812 811 810 810 810 810 810 810 811 811 811 811 811 811 811 811 811
818 818 818 818 818 818 818 818 818 818 818 818 818 819 819 819 819 819 819 819 819 819 819 819 818 818 818 818 818 817 817 816 816 816 816 816 816 815 815 814 814 813 813 813 812 812 812 812 812 812 812 811 811 810 810 809 809 810 810 810 810 810 810 810 810 810 810 810 810
817 817 817 817 817 817 817 817 817 817 818 818 818 818 818 818 818 818 818 818 818 818 818 818 818 818 817 817 817 817 816 816 816 816 815 815 815 815 814 814 813 813 813 812 812 812 811 811 811 811 811 811 810 810 809 809 809 809 809 809 810 810 809 809 809 809 810 810 810
816 816 816 816 816 817 817 817 817 817 817 817 817 818 818 818 818 818 818 818 818 818 818 817 817 817 817 817 816 816 816 816 815 815 815 815 814 814 814 813 813 813 812 812 812 811 811 811 811 811 810 810 810 809 809 809 809 809 809 809 809 809 809 809 809 809 809 809 810
816 816 816 816 816 816 816 816 816 816 816 816 817 817 817 817 817 817 817 817 817 817 817 817 817 816 816 816 816 816 815 815 815 815 814 814 814 814 813 813 813 812 812 812 811 811 811 811 811 810 810 810 809 809 809 809 809 808 808 809 809 809 808 808 808 809 809 809 809
815 815 815 815 815 815 815 815 815 815 816 816 816 816 816 816 816 816 816 816 816 816 816 816 816 816 816 815 815 815 815 814 814 814 814 813 813 813 813 813 812 812 812 811 811 810 810 810 810 810 810 809 809 809 809 808 808 808 808 808 808 808 808 808 808 808 808 808 808
815 815 815 815 814 814 814 814 815 815 815 815 815 815 816 816 816 816 816 816 816 816 816 815 815 815 815 814 814 814 814 814 813 813 813 813 813 813 813 812 812 812 811 811 810 810 810 810 810 810 809 809 809 809 809 808 808 808 808 808 808 808 808 808 808 808 808 808 808
814 814 814 814 814 813 813 813 814 814 814 814 815 815 815 815 815 815 815 815 815 815 815 814 814 814 814 813 813 813 813 813 813 813 812 812 812 812 812 812 811 811 811 810 810 810 809 809 809 809 809 809 809 809 808 808 808 808 808 808 808 808 807 807 807 807 807 807 807
813 813 813 813 813 813 813 813 813 813 813 814 814 814 814 814 814 814 814 814 814 814 814 813 813 813 813 813 813 812 812 812 812 812 812 811 811 811 811 811 811 810 810 810 809 809 809 809 809 809 809 809 809 808 808 808 808 808 808 808 807 807 807 807 807 807 807 807 807
812 812 812 812 812 812 812 812 812 813 813 813 813 813 813 813 813 813 813 813 813 813 813 813 812 812 812 812 812 811 811 811 811 811 811 811 810 810 810 810 810 810 809 809 809 808 808 808 808 808 808 808 808 808 808 808 808 808 808 807 807 806 806 806 806 806 806 806 806
811 811 811 811 811 811 811 811 812 812 812 812 813 813 813 813 813 813 813 812 812 812 812 812 811 811 811 811 811 811 810 810 810 810 810 810 809 809 809 809 809 809 809 808 808 808 808 808 808 808 808 808 808 808 808 808 808 808 807 807 806 806 805 805 805 805 805 805 805
810 810 810 810 810 810 810 810 811 811 811 812 812 812 812 812 812 811 811 811 811 811 811 811 810 810 810 810 810 810 810 810 809 809 809 809 809 808 808 808 808 808 808 808 808 807 807 807 807 807 808 808 808 808 808 808 807 807 806 806 805 805 805 805 804 804 804 804 804
809 809 809 809 809 809 809 809 810 810 810 810 811 811 811 810 810 810 810 810 810 810 810 809 809 809 809 809 809 809 809 809 808 808 808 808 808 808 807 807 807 807 807 807 807 807 807 807 807 807 807 808 808 808 807 807 807 806 806 805 805 804 804 804 804 803 803 803 803
808 808 808 808 808 808 808 808 808 809 809 809 809 809 809 809 809 809 809 809 809 809 809 808 808 808 808 808 808 808 808 808 808 807 807 807 807 807 806 806 806 806 806 806 806 806 806 806 807 807 807 807 807 807 807 806 806 805 805 804 804 804 803 803 803 803 803 803 803
807 807 807 807 807 807 807 807 807 808 808 808 808 808 808 808 808 808 808 808 808 808 808 808 807 807 807 807 807 807 807 807 807 806 806 806 806 806 805 805 805 805 805 805 805 805 806 806 806 807 807 807 807 806 806 806 805 805 804 804 803 803 803 802 802 802 802 802 802
806 806 806 806 806 806 806 806 806 806 806 806 806 806 806 806 807 807 807 806 806 806 806 806 806 806 806 806 806 806 806 806 806 805 805 805 805 805 804 804 804 804 804 804 804 805 805 806 806 806 806 806 806 806 805 805 804 804 803 803 803 802 802 801 801 801 801 801 801
804 804 805 805 805 805 805 805 805 805 805 805 805 805 805 805 805 805 805 805 805 805 805 805 805 805 805 805 805 805 805 805 805 804 804 804 804 804 803 803 803 803 803 803 804 804 805 805 806 806 806 805 805 805 804 804 804 803 803 802 802 801 801 801 800 800 800 800 800
803 803 803 803 804 804 804 804 804 804 804 804 804 804 804 804 804 804 804 804 804 804 804 804 804 804 804 804 804 804 804 804 803 803 803 803 803 803 802 802 802 802 802 803 803 804 804 805 805 805 805 804 804 804 803 803 803 802 802 801 801 800 800 800 800 799 799 799 799
801 802 802 802 803 803 803 803 803 803 803 803 803 803 803 803 803 803 803 803 803 803 803 803 803 803 803 803 803 803 803 803 802 802 802 802 802 802 801 801 801 801 801 802 802 803 803 804 804 804 804 803 803 803 803 802 802 801 801 800 800 799 799 799 799 799 798 798 798
800 800 800 801 801 801 801 801 802 801 801 801 802 802 802 801 801 801 801 801 801 801 801 801 801 801 801 801 801 801 801 801 801 801 801 801 801 801 800 800 800 800 801 801 802 803 803 803 803 803 803 803 802 802 802 801 801 800 799 799 799 798 798 798 798 798 798 798 798
798 799 799 799 799 800 800 800 800 800 800 800 800 800 800 800 800 800 800 800 800 800 800 800 800 800 800 800 800 800 800 800 800 800 800 800 800 800 800 799 800 800 800 800 801 802 802 802 802 802 802 801 801 801 800 800 799 799 798 798 798 798 797 797 797 797 797 797 797
797 797 797 798 798 798 798 798 799 799 799 799 799 799 799 799 799 799 799 798 798 798 798 798 798 798 798 798 798 798 798 799 799 799 799 799 799 799 799 799 799 799 799 800 800 801 801 801 801 801 801 800 800 800 799 799 798 798 798 797 797 797 797 796 796 796 796 796 796
795 795 796 796 796 797 797 797 797 798 798 798 798 798 798 798 798 798 797 797 797 797 797 797 797 797 797 797 797 797 797 798 798 798 798 798 798 798 798 798 798 798 799 799 800 800 800 800 800 800 800 799 799 798 798 798 797 797 797 796 796 796 796 796 796 795 795 795 795
793 793 794 794 795 795 795 796 796 796 796 796 797 797 797 797 796 796 796 796 796 796 796 796 796 796 796 796 796 796 796 796 796 797 797 797 797 797 797 797 798 798 798 799 799 799 799 799 799 798 798 798 798 797 797 796 796 796 796 796 795 795 795 795 795 795 794 794 794
791 792 792 793 793 793 793 794 794 794 795 795 795 795 795 795 795 795 795 795 795 794 794 795 795 795 794 794 795 795 795 795 795 796 796 796 796 796 796 796 797 797 797 798 798 798 798 798 798 797 797 797 796 796 796 795 795 795 795 795 794 794 794 794 794 794 793 793 793
789 790 790 791 791 792 792 792 793 793 793 794 794 794 794 794 794 793 793 793 793 794 794 794 794 793 793 793 794 794 794 794 794 795 795 795 795 795 795 795 796 796 796 797 797 797 797 796 796 796 796 796 795 795 795 794 794 794 794 794 794 793 793 793 793 793 793 792 792
788 788 788 789 789 790 790 791 792 792 792 793 793 793 793 792 792 792 793 793 793 793 793 793 793 793 793 793 793 793 793 793 793 793 794 794 794 794 794 794 795 795 795 796 796 796 795 795 795 795 794 794 794 794 793 793 793 793 793 793 793 793 792 792 792 792 791 791 791
786 786 787 787 788 788 789 789 790 790 791 791 791 791 791 791 791 791 791 792 792 792 792 792 792 792 792 792 792 792 792 792 792 793 793 793 793 793 793 793 793 794 794 794 794 794 794 794 793 793 793 793 793 793 793 793 792 792 792 792 792 791 791 791 791 790 790 790 790
784 784 785 785 786 787 787 788 788 789 789 789 789 789 789 790 790 790 790 790 790 790 790 791 791 791 791 791 791 791 791 791 791 792 792 792 792 793 793 792 792 793 793 793 793 793 793 792 792 792 792 792 792 792 792 791 791 791 791 791 791 790 790 790 790 789 789 789 789
783 783 783 783 784 785 786 786 787 788 788 788 788 788 788 788 788 788 788 789 789 789 789 789 790 790 790 790 790 790 790 790 790 791 791 791 791 791 791 791 791 791 791 791 791 791 791 791 791 791 791 791 791 791 791 790 790 790 790 790 790 789 789 789 788 788 788 788 788
781 781 781 782 783 783 784 785 785 786 786 786 786 786 786 786 787 787 787 788 788 788 788 788 788 788 789 789 789 789 789 789 789 789 790 790 790 790 789 789 789 789 790 790 790 790 790 790 790 790 790 790 790 789 789 789 789 789 789 789 788 788 788 788 788 787 787 787 787
779 779 780 780 781 782 782 783 784 784 784 784 784 784 784 785 785 785 786 787 787 787 787 787 787 787 787 787 787 788 788 788 788 788 788 788 788 788 788 788 788 788 788 788 788 789 789 788 788 789 789 789 788 788 788 788 788 788 788 788 787 787 787 787 786 786 786 786 786
778 778 778 779 779 780 781 781 782 782 782 782 782 782 783 783 783 784 784 785 785 785 785 786 786 786 786 786 786 786 787 787 787 787 787 787 787 787 786 786 786 786 787 787 787 788 788 788 788 788 788 788 788 788 788 787 787 787 787 786 786 786 786 786 785 785 785 785 784
776 776 777 777 778 778 779 779 780 780 780 780 781 781 781 782 782 783 783 783 783 784 784 784 784 784 784 785 785 785 785 785 785 785 785 785 785 785 785 785 784 785 785 785 786 786 786 786 786 787 787 787 786 786 786 786 786 786 785 785 785 785 785 784 784 784 784 783 783
774 775 775 775 776 776 777 777 778 778 778 779 779 779 780 780 780 781 782 782 782 783 783 783 783 783 783 784 784 784 784 784 784 784 784 784 784 784 783 783 783 783 783 784 784 785 785 785 785 785 785 785 785 785 785 785 785 785 784 784 784 784 783 783 783 783 783 782 782
773 773 774 774 774 775 775 775 776 776 777 777 778 778 778 779 779 780 780 781 781 781 781 782 782 782 783 783 783 783 782 782 782 782 782 782 782 782 782 782 782 782 782 783 783 783 784 784 784 784 784 784 784 784 784 784 784 783 783 783 783 783 782 782 782 782 782 781 781
Wind_Speed
5 6 6 7 7 6 6 6 6 6 6 6 5 5 6 5 5 4 3 4 5 6 7 6 7 8 10 10 9 5 3 3 4 5 5 6 7 7 7 7 7 7 7 5 4 2 2 4 5 5 5 3 2 2 3 4 5 3 2 3 4 4 5 5 5 5 5 6 5
4 5 6 5 5 5 5 5 5 6 6 7 6 7 7 7 5 4 3 4 6 7 8 8 9 10 10 10 7 5 3 4 4 4 5 5 6 6 7 7 7 7 6 5 4 2 2 4 5 5 4 2 1 2 3 4 4 3 1 3 4 4 4 4 4 4 5 5 5
4 5 4 2 2 2 3 4 5 6 7 6 6 6 6 6 5 4 4 6 7 9 9 9 9 10 10 8 6 3 3 5 5 5 4 4 5 5 6 7 7 7 6 5 3 2 2 3 4 4 3 1 1 2 3 4 4 2 0 3 4 4 4 4 4 3 4 4 5
4 4 3 3 3 3 4 5 6 6 6 5 5 5 5 5 5 5 6 7 8 8 8 7 9 10 9 7 5 3 4 5 6 5 4 4 4 5 6 7 7 7 6 5 3 2 1 2 3 2 2 1 0 1 3 5 4 3 1 3 4 4 4 3 3 2 3 4 5
4 3 4 5 5 6 6 7 7 7 6 6 6 6 5 5 5 6 7 7 7 6 6 6 8 9 9 7 5 5 5 6 6 5 4 3 3 4 6 7 7 7 7 6 4 2 2 2 2 2 2 3 2 2 4 5 4 2 2 4 4 4 3 2 2 2 3 4 5
5 5 5 6 7 8 8 8 8 8 8 8 7 6 5 5 5 5 6 5 5 5 5 6 8 9 8 7 7 7 7 7 6 5 4 3 3 4 6 7 7 7 6 6 4 3 2 1 2 0 2 3 3 3 5 5 4 2 3 5 4 3 2 2 2 3 4 5 6
7 6 6 7 7 8 8 8 8 8 8 7 6 5 5 5 5 5 5 5 5 5 5 6 7 8 8 8 8 8 7 7 6 5 4 4 4 5 6 7 7 6 6 5 4 3 1 1 2 2 3 4 4 4 5 5 3 0 2 4 4 3 2 2 3 4 4 5 5
6 6 6 7 7 7 7 7 7 6 5 4 3 4 4 5 6 6 6 5 5 5 6 7 8 8 8 8 8 8 8 7 6 5 4 4 4 5 6 6 7 7 6 6 4 2 1 2 3 3 3 4 4 4 4 3 2 2 3 3 3 3 3 3 4 4 4 5 5
6 5 5 6 6 6 6 6 5 4 4 3 3 4 5 6 7 7 7 6 6 6 7 8 8 8 8 8 8 8 8 8 7 7 6 5 4 5 6 7 8 8 7 7 5 3 2 2 2 3 4 4 4 3 2 2 3 3 3 3 2 3 3 4 4 4 4 4 5
6 6 6 6 6 6 6 6 6 5 4 4 4 5 6 7 8 8 7 6 6 7 8 8 9 8 8 8 9 9 8 8 7 7 7 6 5 6 7 8 9 9 8 8 7 5 2 1 2 3 4 4 4 3 2 2 2 3 3 2 3 3 3 4 3 3 4 4 5
7 7 7 8 7 7 7 7 6 5 4 5 6 7 8 8 9 8 7 7 7 8 8 8 8 8 9 9 9 9 8 7 7 7 7 7 6 6 7 8 9 9 9 8 8 6 4 3 3 4 4 4 3 3 2 2 2 2 2 2 3 3 3 3 3 3 4 4 5
8 8 8 9 9 9 8 8 7 5 5 6 7 8 9 10 9 8 8 8 9 9 9 8 8 9 9 9 9 9 8 7 7 7 7 7 7 7 7 8 8 9 9 9 8 7 5 4 5 5 5 4 3 3 3 2 2 3 3 3 3 3 3 3 3 4 4 5 6
8 8 9 9 10 10 9 8 7 6 7 7 9 10 10 9 8 8 8 9 10 10 9 9 9 9 9 9 9 8 8 8 7 7 7 6 6 7 7 8 8 9 9 9 8 7 6 5 5 6 6 5 4 4 4 4 3 3 3 3 3 3 3 3 4 4 4 5 6
8 8 8 9 10 10 9 8 8 8 8 9 10 10 9 9 8 8 9 10 10 10 10 10 9 9 8 8 8 8 8 8 8 7 7 7 6 7 7 8 8 9 9 9 9 8 6 6 6 6 6 6 5 5 5 5 4 4 4 4 3 3 3 4 4 5 5 6 7
9 9 9 9 9 9 9 9 9 9 9 9 9 9 9 9 9 10 10 11 11 11 10 10 9 9 8 8 8 8 8 8 8 8 8 8 7 7 7 8 8 9 9 9 9 8 7 6 7 7 7 6 6 6 6 6 5 5 4 4 4 4 4 4 5 5 6 6 7
10 10 10 9 10 10 10 10 9 9 9 9 9 9 9 10 11 11 11 12 11 10 10 10 9 8 8 7 7 7 7 8 8 9 10 9 8 8 7 8 8 9 9 10 9 8 7 7 7 7 7 7 7 7 7 7 5 5 4 4 4 4 4 5 5 6 6 6 7
11 11 11 10 10 10 11 10 10 10 10 9 9 9 10 11 12 12 12 11 11 10 10 9 9 8 8 8 7 7 7 8 9 10 10 10 10 9 9 8 8 8 9 10 9 9 8 8 8 8 8 8 8 8 8 7 6 6 5 5 5 5 5 5 6 6 6 6 7
13 12 12 11 11 11 11 11 11 11 10 10 10 11 12 13 13 13 12 11 11 11 11 10 9 8 8 8 8 7 8 9 10 11 11 11 10 10 9 9 8 9 9 10 9 8 8 8 8 9 8 9 9 8 8 7 7 7 6 6 5 5 5 5 6 6 6 6 6
14 13 13 12 12 12 11 11 11 11 11 11 12 12 13 13 13 13 13 12 12 12 11 10 9 8 9 9 8 8 8 9 10 11 11 10 10 10 9 9 9 9 9 9 9 9 8 9 9 9 10 10 9 9 8 7 7 7 6 6 6 6 6 6 5 6 6 6 7
15 15 14 13 13 12 12 12 12 12 12 12 13 13 13 13 13 12 12 12 11 11 10 9 9 8 8 8 8 9 9 10 11 11 11 10 10 10 9 9 9 9 9 9 9 9 9 9 10 10 10 10 10 9 8 7 7 7 7 6 6 6 6 6 6 6 6 7 7
16 15 15 14 13 13 13 13 13 13 13 13 13 13 13 13 12 12 11 11 10 9 9 8 8 8 8 8 9 9 10 10 11 11 11 10 10 10 10 10 9 9 9 9 9 9 10 10 11 11 10 10 9 8 8 7 7 7 7 7 6 6 6 6 6 6 7 7 8
17 16 15 14 14 14 14 13 13 13 13 14 14 13 13 13 12 11 11 10 9 9 9 9 9 9 9 8 9 9 10 11 12 12 12 11 11 11 10 10 10 9 9 9 9 9 10 11 11 11 10 9 8 8 8 8 8 7 7 7 6 6 6 6 6 7 7 8 8
17 16 15 15 14 14 14 14 14 14 14 14 14 14 13 13 12 11 10 10 9 9 9 9 10 10 10 9 10 11 12 13 14 13 13 12 11 11 10 9 9 9 9 9 9 10 11 12 12 11 10 9 8 8 8 8 8 8 7 7 6 6 6 6 7 7 8 8 8
17 16 15 15 15 15 15 15 15 15 15 15 14 14 13 12 12 11 10 10 10 10 10 10 10 11 11 11 11 12 13 14 14 14 13 11 10 9 9 9 10 10 10 9 9 10 11 12 12 11 9 7 7 8 8 8 8 7 7 7 6 6 7 7 8 8 8 8 8
17 16 16 16 16 16 15 15 15 16 16 15 14 13 12 12 11 11 11 10 10 10 11 11 11 11 11 11 11 12 13 14 14 13 12 10 9 8 9 10 11 11 10 9 9 10 12 12 12 10 8 8 8 8 8 8 8 7 7 7 7 7 7 7 7 7 7 7 7
17 17 17 17 16 16 16 16 16 16 15 15 14 13 13 12 12 11 11 11 11 11 11 11 11 11 10 10 10 11 12 12 12 11 10 10 9 9 10 11 11 11 10 10 11 12 12 12 11 10 10 9 9 9 9 8 8 7 7 7 7 7 8 7 7 7 7 7 7
18 18 18 17 17 17 17 16 16 15 15 15 14 13 13 12 12 12 12 12 12 11 11 11 11 10 10 10 10 10 10 10 10 9 9 9 9 10 10 11 11 10 10 11 12 12 12 12 11 11 10 10 10 9 9 8 8 7 7 7 7 7 7 7 7 7 7 7 7
19 19 18 18 18 18 17 16 16 16 15 15 14 13 13 13 13 13 13 13 12 12 11 11 10 9 9 9 9 9 9 8 8 8 8 9 10 11 11 11 11 10 11 11 12 12 12 12 11 10 10 9 9 9 8 8 8 7 7 7 7 7 7 7 7 7 7 8 8
20 19 19 18 18 18 18 17 17 16 15 15 14 13 13 13 14 14 14 13 13 13 12 11 10 9 9 9 9 8 8 8 8 8 9 9 10 12 12 12 11 11 12 12 12 12 12 11 11 10 9 9 9 9 8 8 8 8 8 8 8 8 8 8 8 8 8 8 8
20 19 19 19 19 19 18 18 17 16 15 14 14 14 14 14 15 15 15 15 14 13 12 10 9 9 9 9 8 8 8 8 9 9 10 11 12 13 13 12 11 11 11 12 13 12 12 11 10 10 9 9 8 8 8 8 8 8 8 8 8 8 8 8 8 8 8 9 9
21 20 20 20 20 19 19 18 17 16 15 15 15 15 15 15 16 16 16 15 14 12 11 9 9 9 9 9 9 9 10 10 10 11 11 12 13 13 13 13 12 11 12 12 12 12 12 11 10 9 9 9 8 8 8 8 8 8 9 9 9 9 9 9 9 9 9 9 9
21 21 21 20 20 20 19 18 17 16 15 15 15 16 16 17 17 16 16 14 13 11 10 9 10 10 10 11 11 11 12 12 12 12 12 13 13 14 14 13 13 12 12 12 12 12 11 11 10 9 9 8 8 8 9 9 9 9 9 9 9 9 9 9 9 9 9 9 10
22 22 21 21 21 20 20 19 18 17 16 16 16 17 17 17 17 16 15 14 13 12 11 11 11 11 12 12 13 13 13 13 12 12 13 13 14 14 14 14 14 13 12 12 12 12 11 11 10 9 9 8 8 8 9 9 9 9 9 9 9 9 9 9 10 10 10 10 10
23 22 22 22 21 21 20 19 18 18 17 17 18 18 18 18 18 17 16 14 13 12 12 12 13 13 13 13 14 14 13 13 13 13 14 15 15 15 15 15 15 13 12 12 11 11 11 11 10 9 9 9 8 9 9 9 9 9 9 9 9 9 9 10 10 10 10 10 10
23 23 23 22 22 21 21 20 19 19 18 19 19 19 19 19 19 18 16 14 13 13 13 13 13 13 14 14 14 14 14 14 14 15 16 16 17 17 17 16 15 13 12 11 11 11 11 11 10 9 9 9 9 9 9 9 9 9 9 9 9 9 9 10 10 10 10 10 10
24 24 23 23 22 22 21 21 20 20 20 20 20 20 20 20 19 17 15 13 13 13 13 14 14 14 14 15 15 15 15 16 16 16 17 17 17 17 17 16 15 13 11 11 11 11 11 11 10 10 9 9 10 9 9 9 9 9 9 9 9 9 9 9 9 9 10 10 10
25 25 24 23 23 23 22 22 21 21 21 21 21 21 20 20 19 17 14 13 13 13 14 14 15 15 16 16 16 16 16 16 16 16 16 16 16 16 16 15 14 12 11 10 10 11 11 11 10 10 10 10 10 9 9 9 9 9 9 9 9 9 9 9 9 9 9 9 10
26 25 25 24 24 23 23 22 22 23 23 22 22 21 20 19 18 16 14 13 13 14 15 16 16 17 16 16 16 16 15 15 15 15 15 15 15 15 15 14 13 11 10 10 10 10 11 11 11 11 11 11 10 10 9 9 9 9 9 9 9 9 9 9 9 9 9 10 10
26 25 25 25 24 24 24 23 24 24 24 23 22 21 20 19 18 16 15 14 14 15 16 17 18 17 16 15 15 15 15 15 15 15 15 15 15 15 15 14 14 12 10 10 10 11 11 11 11 11 11 11 10 10 9 9 9 9 9 10 10 9 9 9 9 10 10 10 10
25 25 25 25 25 24 24 24 24 24 23 22 21 21 20 19 17 16 15 14 15 16 18 18 18 17 16 15 15 15 16 16 17 17 16 16 15 15 15 15 14 13 12 11 11 11 12 12 12 12 11 11 11 10 9 9 9 9 10 10 10 10 10 10 10 10 11 11 11
25 25 25 25 25 25 25 25 24 24 23 22 21 20 19 18 16 15 15 15 16 17 18 18 18 17 16 16 16 16 17 17 18 17 17 16 15 15 15 15 15 14 13 12 12 12 12 13 12 12 12 12 11 10 10 10 10 10 10 10 10 10 10 10 11 11 11 12 12
Wind_Direction
199 208 217 218 217 213 209 211 220 229 234 237 242 247 249 252 256 264 279 294 290 283 276 274 278 278 278 282 287 292 312 347 343 334 329 329 331 338 345 350 351 351 353 2 15 53 118 135 129 111 87 62 36 354 321 305 309 322 13 79 69 54 38 24 20 20 19 12 2
206 219 226 226 229 227 224 222 225 230 235 237 242 249 253 255 254 258 270 279 274 271 270 272 274 276 279 283 284 288 310 333 327 321 321 326 331 336 339 340 339 337 339 347 3 35 106 137 130 107 82 65 25 331 309 295 300 312 42 89 75 60 44 30 25 24 20 10 357
223 223 218 198 215 235 235 231 231 234 238 243 250 258 262 261 254 251 256 261 261 265 272 279 280 282 286 290 284 287 312 323 315 311 313 320 326 330 331 328 325 323 324 331 350 23 90 139 133 107 80 84 8 311 295 288 292 292 110 98 79 61 43 29 22 21 16 8 358
243 223 192 170 194 225 234 235 235 237 239 244 250 255 261 261 254 248 248 252 259 269 279 288 291 294 296 298 293 297 306 303 297 294 297 306 317 324 323 318 314 314 316 321 338 12 70 137 141 127 119 153 152 289 284 280 285 276 178 120 88 63 39 25 14 10 9 3 356
261 238 203 187 199 216 230 237 238 236 234 235 235 237 243 250 253 253 255 260 268 278 289 297 298 299 301 301 303 301 297 288 283 279 277 288 308 314 312 307 305 309 313 320 332 358 48 121 141 154 179 186 189 256 276 275 280 264 172 132 98 69 39 18 7 1 357 355 353
253 246 229 214 215 223 232 240 241 238 236 234 232 232 235 243 252 258 263 271 277 286 292 296 295 297 299 302 301 297 291 286 281 274 268 274 296 304 302 300 299 305 314 321 329 346 27 81 98 144 229 213 215 244 264 270 276 250 153 126 95 68 36 13 6 4 360 357 356
246 241 237 235 237 240 243 247 248 247 244 239 237 238 245 251 257 260 264 270 276 283 286 285 285 286 290 294 295 293 291 290 286 276 267 267 284 294 296 296 299 307 317 324 330 341 11 50 38 344 279 240 234 248 263 271 286 302 112 105 80 50 6 1 4 4 2 358 356
252 243 242 246 251 253 256 257 255 249 243 240 245 255 261 265 267 266 263 261 263 268 273 275 277 280 285 288 291 293 296 299 300 294 283 274 281 292 299 301 309 316 324 329 333 340 359 6 349 323 289 259 247 255 268 287 338 26 56 63 50 21 359 359 1 359 354 347 342
267 258 256 258 260 264 267 267 261 247 230 225 243 260 269 274 276 274 270 266 261 261 266 273 278 284 288 290 292 295 298 303 308 307 303 298 300 306 309 311 314 320 325 330 332 335 344 342 324 306 289 282 272 275 294 342 19 28 30 28 13 1 356 357 357 356 347 336 330
265 266 264 262 260 259 261 260 256 244 224 215 227 244 257 262 266 269 271 271 268 266 270 276 282 287 290 292 293 295 298 302 305 307 308 310 313 313 310 309 312 317 322 325 328 328 327 304 273 278 288 298 300 309 334 6 12 12 11 5 348 343 346 350 354 349 339 328 321
255 257 259 260 258 253 249 249 248 242 232 227 228 236 243 246 251 257 263 265 267 269 272 277 282 285 286 287 289 293 296 298 299 300 304 308 310 308 305 305 309 313 316 319 322 323 321 309 292 288 291 297 306 318 335 346 346 345 344 341 334 333 336 340 341 340 331 320 314
249 246 247 253 256 252 247 244 240 238 240 245 244 245 245 246 248 252 256 260 263 267 271 273 275 276 279 283 288 292 295 295 295 295 296 300 304 304 302 302 305 308 311 313 315 318 320 318 310 303 298 296 303 309 311 313 317 317 316 316 324 329 328 328 329 326 319 311 308
252 244 242 246 252 253 249 243 237 235 240 246 251 254 255 255 253 253 254 257 261 265 269 270 272 274 278 283 288 292 294 295 296 295 294 294 298 299 298 298 300 302 305 308 310 312 314 310 303 300 301 302 302 298 294 292 291 291 292 294 302 312 316 314 317 313 308 306 308
261 254 248 247 251 252 250 245 239 237 239 243 249 255 260 261 259 257 257 259 262 265 268 270 272 275 279 283 287 289 291 294 296 296 295 292 291 289 288 290 293 296 299 303 305 307 305 298 293 292 293 292 290 286 284 280 277 276 277 279 286 296 306 308 308 305 303 305 311
263 261 258 256 253 252 250 247 242 240 241 244 248 253 258 260 259 260 261 263 264 265 267 269 271 273 277 280 282 286 290 293 295 296 295 293 287 282 280 282 286 291 294 298 299 301 298 291 286 283 281 279 278 277 276 274 271 270 271 274 278 288 297 302 301 301 302 306 309
257 260 260 258 254 252 249 248 246 245 245 246 246 247 250 254 258 261 265 268 268 268 268 270 273 275 277 279 282 286 290 292 292 292 293 293 290 285 280 280 283 288 292 293 294 295 293 290 285 280 275 272 271 271 271 270 270 270 273 276 280 285 291 294 296 299 303 307 309
251 255 258 257 255 251 249 249 249 248 248 247 245 243 246 250 256 261 265 268 271 272 272 273 274 277 278 280 282 281 279 277 277 279 282 286 287 285 282 280 283 286 287 288 289 291 291 289 285 280 275 270 268 267 267 268 270 273 275 278 282 284 287 290 295 299 305 309 311
247 251 255 256 255 251 250 249 249 249 249 248 246 245 246 249 254 258 261 263 266 268 270 272 273 275 278 280 280 276 271 267 268 271 276 281 283 283 281 281 281 282 283 284 286 288 288 285 281 277 272 268 266 264 265 267 270 274 277 280 281 282 285 290 296 301 306 309 309
246 248 251 252 253 252 251 250 250 250 250 250 250 249 250 252 255 259 261 262 262 264 267 271 272 273 276 279 281 280 277 274 276 279 282 284 285 283 281 279 278 279 280 283 284 284 283 279 275 271 268 265 263 263 264 268 273 278 281 283 281 283 286 293 300 305 306 305 301
245 246 248 250 252 253 253 253 253 253 254 254 254 254 255 257 260 262 264 264 264 265 267 271 273 275 278 282 283 281 279 280 282 285 287 288 286 284 281 279 276 276 277 278 280 279 276 273 269 266 264 262 262 264 267 272 277 281 283 282 281 284 289 297 303 304 301 299 298
245 246 248 249 252 253 254 255 256 256 256 256 256 257 259 261 263 264 265 266 266 266 267 269 272 276 278 281 282 281 280 280 281 282 283 283 282 280 279 278 276 274 272 272 273 273 271 268 265 263 260 260 262 265 270 274 278 280 281 282 283 287 293 298 300 298 296 296 299
246 246 248 249 251 253 255 256 256 256 255 256 257 259 260 262 262 263 264 265 264 263 263 264 266 269 270 272 275 276 276 275 275 274 274 273 272 272 274 274 275 274 270 267 266 266 265 263 261 259 259 259 262 267 272 275 277 279 280 284 287 291 294 294 293 294 296 300 302
247 247 248 248 250 251 253 254 254 255 254 255 256 257 258 259 260 260 260 260 260 259 259 259 261 261 261 260 260 261 262 265 267 269 270 269 268 270 272 274 276 276 272 266 262 259 257 256 255 254 255 257 262 268 272 275 276 279 282 286 290 291 291 290 292 296 300 303 304
247 247 247 248 248 249 249 251 251 252 252 252 254 255 256 256 257 257 257 257 257 258 259 260 261 262 260 258 256 255 256 260 264 268 270 269 269 270 272 273 273 273 270 264 258 254 252 249 249 249 252 257 264 270 274 275 276 279 283 288 291 289 288 290 293 298 302 304 303
245 246 246 246 246 246 247 248 248 248 250 251 253 253 253 254 254 255 256 256 257 259 261 263 264 265 264 262 260 260 260 262 263 266 268 269 268 267 266 266 266 266 263 258 252 248 247 246 247 251 257 264 270 274 275 275 277 279 284 288 289 289 290 294 297 301 303 303 302
243 243 243 243 244 244 245 246 247 248 250 251 251 251 251 251 253 254 254 254 255 258 260 262 263 264 266 267 266 265 265 266 265 265 266 268 269 268 265 263 262 261 258 253 248 245 244 244 247 253 262 269 274 276 275 275 277 281 285 287 288 288 291 295 298 300 302 303 302
239 239 239 241 241 242 244 246 248 249 249 250 249 249 249 250 252 253 253 254 255 257 259 261 262 263 265 266 265 265 265 266 266 265 266 267 269 269 268 267 263 258 254 251 247 246 245 245 247 251 258 265 270 273 273 275 278 282 285 286 287 288 289 293 296 299 301 301 302
235 235 237 238 239 241 244 246 247 247 248 249 249 249 249 249 250 251 252 253 255 256 256 257 260 262 262 261 261 262 264 266 268 268 267 266 265 265 266 267 264 257 252 249 247 246 246 246 248 251 255 261 266 270 273 275 278 281 284 284 284 286 288 291 294 296 299 300 301
233 234 234 235 238 241 244 245 246 247 248 248 249 249 249 248 249 250 251 252 252 253 253 254 256 257 256 256 258 262 265 267 270 270 267 262 260 259 261 263 262 256 250 248 246 245 245 246 249 253 256 260 265 269 272 275 277 280 282 282 282 282 284 286 289 293 295 298 301
232 232 233 235 238 241 243 245 246 247 247 247 246 246 246 246 247 249 250 250 251 253 253 253 250 248 249 252 257 260 261 263 265 266 264 261 258 257 258 261 260 254 249 247 246 245 245 247 250 254 258 262 265 268 271 273 275 277 278 279 279 280 281 283 286 288 292 295 299
231 231 233 235 238 240 243 245 246 246 245 244 243 242 243 244 246 248 250 252 253 254 253 249 244 242 243 247 250 252 254 255 256 257 257 257 257 257 259 260 259 254 250 248 247 246 247 249 252 255 260 263 266 268 270 272 273 274 275 276 276 277 278 280 282 285 289 294 297
230 231 232 234 236 240 242 244 244 243 242 241 240 241 242 245 247 250 252 254 254 253 249 245 241 239 240 241 243 246 247 248 249 250 251 253 254 256 257 258 257 254 251 249 247 247 247 250 253 257 261 264 266 268 270 271 272 273 273 273 274 276 278 280 282 285 288 292 295
230 230 231 233 235 238 241 242 241 241 239 238 238 240 242 245 248 250 252 251 250 246 243 241 239 239 239 240 241 243 245 245 245 246 247 248 249 251 253 254 254 254 252 249 248 247 249 251 255 258 261 264 266 267 269 271 271 272 272 273 275 279 282 284 285 287 289 290 293
228 228 230 232 234 236 238 239 239 238 237 236 237 238 241 244 246 249 249 248 245 242 240 239 240 241 242 243 243 244 244 243 242 242 241 242 243 245 247 249 250 252 252 250 248 249 251 254 256 259 261 264 265 266 267 269 270 270 272 274 277 281 283 283 284 285 287 289 292
226 226 227 230 232 234 235 236 236 235 234 234 235 237 239 242 245 248 249 248 244 240 238 238 240 241 243 244 243 243 242 240 239 238 238 239 240 241 243 245 247 249 250 250 249 250 251 254 256 258 260 262 262 263 265 267 268 270 273 276 279 281 282 282 283 284 286 289 292
226 225 226 228 229 231 232 233 233 232 231 232 233 235 238 241 245 248 249 247 243 238 236 237 238 238 239 240 240 240 240 239 239 239 240 241 242 244 246 247 248 247 246 249 249 248 249 251 255 257 258 258 258 260 262 265 268 271 274 277 279 282 283 283 283 284 285 288 291
226 226 226 226 227 229 230 230 230 229 229 231 233 235 238 241 245 247 247 243 238 235 234 235 235 236 237 237 238 240 241 242 242 243 244 245 247 249 251 254 253 248 244 245 247 247 247 248 253 256 257 255 254 257 260 264 267 271 274 276 278 282 284 283 283 284 286 288 291
227 226 226 226 226 227 228 228 228 228 229 231 234 238 241 243 245 245 243 237 233 231 232 233 235 236 237 239 240 241 243 244 244 245 245 247 249 253 257 260 260 254 244 240 244 246 246 247 251 255 255 253 253 255 259 263 266 270 273 276 278 282 283 283 284 285 286 289 291
227 226 226 226 226 227 227 227 227 228 230 233 236 239 241 243 244 243 240 235 231 230 231 233 235 237 238 239 239 240 241 241 242 243 245 247 250 254 259 262 264 260 250 241 243 246 247 247 250 252 252 252 251 253 256 260 265 269 273 277 280 282 284 284 285 286 288 290 292
227 227 227 227 227 226 226 227 228 230 232 234 235 237 240 241 242 241 238 233 230 230 231 233 235 237 237 236 236 236 237 238 240 242 245 248 251 254 257 260 263 263 258 248 244 244 246 248 249 250 250 250 249 250 253 258 263 268 272 275 279 282 284 285 286 288 290 292 294
228 227 227 227 227 227 226 227 229 231 232 234 235 237 240 241 241 238 234 229 228 229 231 234 236 236 235 233 233 234 235 238 240 244 248 251 253 253 254 257 260 263 263 258 250 246 245 247 248 247 247 247 247 248 250 254 260 264 268 272 276 280 284 287 288 289 291 293 295